When you browse on this site, cookies collect data to enhance your experience and personalize the content and advertising you see.
Visit our Privacy Policy to learn more. By continuing to use the site, you agree to this use of cookies and data.
  • En España
  • Lista de países
  • Para 7 días
  • Temperatura del agua
  • Mapa Satelital
  • El tiempo en el mapa
  • Informadores
  • user-avatar
    Iniciar sesión

    Tiempo cada hora La-Plata

    Hoy, 17 Diciembre, Lunes

    Tiempo Temperatura Precipitaciones Viento Presión Humedad
    00:00 +26°C° 4.4 mm 4 mps 754 mmHg 83%
    01:00 +25°C° 4.4 mm 4 mps 754 mmHg 87%
    02:00 +25°C° 0 mm 5 mps 753 mmHg 93%
    03:00 +25°C° 1.4 mm 4 mps 754 mmHg 93%
    04:00 +25°C° 1.4 mm 4 mps 754 mmHg 94%
    05:00 +24°C° 1.4 mm 3 mps 754 mmHg 94%
    06:00 +25°C° 0.2 mm 4 mps 755 mmHg 89%
    07:00 +27°C° 0.2 mm 4 mps 755 mmHg 84%
    08:00 +28°C° 0.2 mm 5 mps 756 mmHg 79%
    09:00 +27°C° 0.3 mm 6 mps 756 mmHg 76%
    10:00 +27°C° 0.3 mm 7 mps 757 mmHg 72%
    11:00 +27°C° 0.3 mm 8 mps 757 mmHg 68%
    12:00 +27°C° 0 mm 9 mps 757 mmHg 62%
    13:00 +27°C° 0 mm 10 mps 757 mmHg 56%
    14:00 +28°C° 0 mm 10 mps 757 mmHg 50%
    15:00 +26°C° 0 mm 10 mps 758 mmHg 53%
    16:00 +24°C° 0 mm 10 mps 759 mmHg 55%
    17:00 +22°C° 0 mm 9 mps 759 mmHg 58%
    18:00 +21°C° 0 mm 9 mps 760 mmHg 61%
    19:00 +19°C° 0 mm 9 mps 760 mmHg 64%
    20:00 +18°C° 0 mm 9 mps 760 mmHg 67%
    21:00 +17°C° 0 mm 9 mps 761 mmHg 69%
    22:00 +17°C° 0 mm 9 mps 761 mmHg 71%
    23:00 +17°C° 0 mm 8 mps 762 mmHg 73%

    Mañana, 18 Diciembre, Martes

    Tiempo Temperatura Precipitaciones Viento Presión Humedad
    00:00 +17°C° 0 mm 8 mps 762 mmHg 74%
    01:00 +17°C° 0 mm 8 mps 761 mmHg 75%
    02:00 +17°C° 0 mm 8 mps 761 mmHg 76%
    03:00 +17°C° 0 mm 8 mps 761 mmHg 76%
    04:00 +17°C° 0 mm 8 mps 762 mmHg 76%
    05:00 +17°C° 0 mm 8 mps 762 mmHg 77%
    06:00 +18°C° 0 mm 8 mps 762 mmHg 76%
    07:00 +18°C° 0 mm 8 mps 762 mmHg 76%
    08:00 +18°C° 0 mm 8 mps 763 mmHg 75%
    09:00 +20°C° 0.1 mm 8 mps 763 mmHg 72%
    10:00 +21°C° 0.1 mm 7 mps 762 mmHg 70%
    11:00 +22°C° 0.1 mm 7 mps 762 mmHg 67%
    12:00 +22°C° 0.1 mm 7 mps 762 mmHg 67%
    13:00 +22°C° 0.1 mm 7 mps 762 mmHg 67%
    14:00 +22°C° 0.1 mm 7 mps 762 mmHg 67%
    15:00 +22°C° 0 mm 7 mps 762 mmHg 68%
    16:00 +22°C° 0 mm 7 mps 762 mmHg 69%
    17:00 +21°C° 0 mm 7 mps 761 mmHg 71%
    18:00 +20°C° 0 mm 6 mps 762 mmHg 73%
    19:00 +20°C° 0 mm 6 mps 762 mmHg 76%
    20:00 +19°C° 0 mm 5 mps 762 mmHg 79%
    21:00 +19°C° 0 mm 5 mps 761 mmHg 80%
    22:00 +19°C° 0 mm 5 mps 761 mmHg 81%
    23:00 +19°C° 0 mm 5 mps 761 mmHg 82%

    Pasado mañana, 19 Diciembre, Miércoles

    Tiempo Temperatura Precipitaciones Viento Presión Humedad
    00:00 +19°C° 0.1 mm 4 mps 761 mmHg 83%
    01:00 +20°C° 0.1 mm 4 mps 760 mmHg 85%
    02:00 +20°C° 0.1 mm 3 mps 760 mmHg 86%
    03:00 +20°C° 0.1 mm 3 mps 760 mmHg 87%
    04:00 +20°C° 0.1 mm 3 mps 759 mmHg 88%
    05:00 +20°C° 0.1 mm 3 mps 759 mmHg 89%
    06:00 +21°C° 0 mm 3 mps 759 mmHg 86%
    07:00 +21°C° 0 mm 3 mps 759 mmHg 84%
    08:00 +22°C° 0 mm 3 mps 759 mmHg 81%
    09:00 +24°C° 0 mm 3 mps 758 mmHg 77%
    10:00 +25°C° 0 mm 3 mps 758 mmHg 73%
    11:00 +26°C° 0 mm 3 mps 758 mmHg 69%
    12:00 +27°C° 0 mm 3 mps 757 mmHg 67%
    13:00 +27°C° 0 mm 3 mps 756 mmHg 65%
    14:00 +28°C° 0 mm 3 mps 756 mmHg 63%
    15:00 +28°C° 0 mm 3 mps 755 mmHg 63%
    16:00 +28°C° 0 mm 3 mps 755 mmHg 63%
    17:00 +28°C° 0 mm 3 mps 755 mmHg 63%
    18:00 +27°C° 0 mm 4 mps 755 mmHg 71%
    19:00 +25°C° 0 mm 4 mps 755 mmHg 79%
    20:00 +23°C° 0 mm 4 mps 755 mmHg 86%
    21:00 +22°C° 0.1 mm 3 mps 755 mmHg 89%
    22:00 +22°C° 0.1 mm 3 mps 755 mmHg 91%
    23:00 +21°C° 0.1 mm 2 mps 755 mmHg 93%

    20 Diciembre, Jueves

    Tiempo Temperatura Precipitaciones Viento Presión Humedad
    00:00 +21°C° 0 mm 2 mps 755 mmHg 93%
    01:00 +21°C° 0 mm 2 mps 754 mmHg 94%
    02:00 +21°C° 0 mm 2 mps 753 mmHg 94%
    03:00 +21°C° 0.3 mm 2 mps 754 mmHg 95%
    04:00 +21°C° 0.3 mm 2 mps 754 mmHg 95%
    05:00 +21°C° 0.3 mm 2 mps 755 mmHg 95%
    06:00 +23°C° 0.5 mm 2 mps 755 mmHg 88%
    07:00 +25°C° 0.5 mm 2 mps 755 mmHg 81%
    08:00 +27°C° 0.5 mm 2 mps 755 mmHg 73%
    09:00 +28°C° 0 mm 2 mps 755 mmHg 67%
    10:00 +30°C° 0 mm 2 mps 754 mmHg 60%
    11:00 +31°C° 0 mm 2 mps 754 mmHg 54%
    12:00 +31°C° 0.3 mm 3 mps 754 mmHg 54%
    13:00 +31°C° 0.3 mm 3 mps 753 mmHg 53%
    14:00 +33°C° 0.3 mm 3 mps 753 mmHg 53%
    15:00 +32°C° 0.3 mm 4 mps 753 mmHg 56%
    16:00 +30°C° 0.3 mm 5 mps 753 mmHg 60%
    17:00 +29°C° 0.3 mm 5 mps 752 mmHg 63%
    18:00 +28°C° 0.9 mm 5 mps 753 mmHg 71%
    19:00 +26°C° 0.9 mm 5 mps 753 mmHg 79%
    20:00 +23°C° 0.9 mm 5 mps 753 mmHg 86%
    21:00 +23°C° 0.1 mm 4 mps 753 mmHg 87%
    22:00 +23°C° 0.1 mm 4 mps 753 mmHg 88%
    23:00 +23°C° 0.1 mm 4 mps 753 mmHg 89%

    21 Diciembre, Viernes

    Tiempo Temperatura Precipitaciones Viento Presión Humedad
    00:00 +23°C° 2 mm 4 mps 752 mmHg 88%
    01:00 +24°C° 2 mm 3 mps 752 mmHg 88%
    02:00 +23°C° 2 mm 2 mps 751 mmHg 87%
    03:00 +23°C° 0.4 mm 2 mps 751 mmHg 87%
    04:00 +23°C° 0.4 mm 2 mps 751 mmHg 87%
    05:00 +23°C° 0.4 mm 2 mps 751 mmHg 87%
    06:00 +24°C° 0.3 mm 3 mps 751 mmHg 82%
    07:00 +25°C° 0.3 mm 4 mps 751 mmHg 76%
    08:00 +26°C° 0.3 mm 4 mps 752 mmHg 71%
    09:00 +27°C° 0.1 mm 5 mps 751 mmHg 63%
    10:00 +28°C° 0.1 mm 5 mps 751 mmHg 55%
    11:00 +29°C° 0.1 mm 6 mps 751 mmHg 46%
    12:00 +30°C° 0 mm 6 mps 751 mmHg 47%
    13:00 +30°C° 0 mm 7 mps 750 mmHg 47%
    14:00 +30°C° 0 mm 7 mps 750 mmHg 48%
    15:00 +30°C° 0 mm 7 mps 750 mmHg 49%
    16:00 +30°C° 0 mm 6 mps 750 mmHg 50%
    17:00 +30°C° 0 mm 6 mps 750 mmHg 51%
    18:00 +28°C° 0 mm 5 mps 751 mmHg 57%
    19:00 +27°C° 0 mm 4 mps 751 mmHg 62%
    20:00 +25°C° 0 mm 3 mps 751 mmHg 68%
    21:00 +24°C° 0 mm 3 mps 752 mmHg 72%
    22:00 +22°C° 0 mm 3 mps 752 mmHg 76%
    23:00 +21°C° 0 mm 3 mps 753 mmHg 80%

    22 Diciembre, Sábado

    Tiempo Temperatura Precipitaciones Viento Presión Humedad
    00:00 +20°C° 0 mm 3 mps 753 mmHg 82%
    01:00 +19°C° 0 mm 3 mps 753 mmHg 84%
    02:00 +19°C° 0 mm 3 mps 753 mmHg 85%
    03:00 +18°C° 0 mm 2 mps 753 mmHg 85%
    04:00 +18°C° 0 mm 2 mps 754 mmHg 85%
    05:00 +18°C° 0 mm 2 mps 754 mmHg 85%
    06:00 +20°C° 0 mm 2 mps 755 mmHg 77%
    07:00 +23°C° 0 mm 1 mps 755 mmHg 68%
    08:00 +25°C° 0 mm 1 mps 756 mmHg 59%
    09:00 +27°C° 0 mm 1 mps 756 mmHg 53%
    10:00 +30°C° 0 mm 1 mps 756 mmHg 46%
    11:00 +32°C° 0 mm 1 mps 756 mmHg 39%
    12:00 +34°C° 0 mm 2 mps 755 mmHg 37%
    13:00 +34°C° 0 mm 2 mps 755 mmHg 36%
    14:00 +35°C° 0 mm 3 mps 754 mmHg 34%
    15:00 +34°C° 0 mm 3 mps 754 mmHg 38%
    16:00 +33°C° 0 mm 3 mps 754 mmHg 42%
    17:00 +31°C° 0 mm 3 mps 754 mmHg 45%
    18:00 +29°C° 0 mm 4 mps 755 mmHg 52%
    19:00 +27°C° 0 mm 4 mps 755 mmHg 58%
    20:00 +25°C° 0 mm 4 mps 756 mmHg 64%
    21:00 +25°C° 0.2 mm 4 mps 756 mmHg 65%
    22:00 +25°C° 0.2 mm 4 mps 756 mmHg 67%
    23:00 +23°C° 0.2 mm 4 mps 756 mmHg 68%
    Mostrar más